This demonstration page uses our WeatherBlox Daily Observations layout. Learn more.

Left ArrowRight Arrow

Hourly Observations for March 2, 2022

Temp ( °F °C ) Dew Point ( °F °C ) Humidity (%) Winds ( mph kmh ) Pressure ( in mb ) Visibility ( mi km ) Precip ( " mm )
12:53 am 00:53 Clear 44 6.7 13 -10.6 28 28 NE 3 6 30.11 1020 10 16 0.00 0.00
1:53 am 01:53 Clear 39 3.9 12 -11.1 33 33 N 6 9 30.12 1020 10 16 0.00 0.00
2:53 am 02:53 Clear 39 3.9 13 -10.6 34 34 NNE 7 11 30.10 1019 10 16 0.00 0.00
3:53 am 03:53 Clear 35 1.7 11 -11.7 37 37 N 8 13 30.09 1019 10 16 0.00 0.00
4:53 am 04:53 Clear 35 1.7 12 -11.1 38 38 N 6 9 30.09 1019 10 16 0.00 0.00
5:53 am 05:53 Clear 36 2.2 13 -10.6 39 39 NE 6 9 30.09 1019 10 16 0.00 0.00
6:53 am 06:53 Clear 34 1.1 12 -11.1 40 40 N 7 11 30.11 1020 10 16 0.00 0.00
7:53 am 07:53 Sunny 38 3.3 14 -10 37 37 NE 6 9 30.13 1020 10 16 0.00 0.00
8:53 am 08:53 Sunny 53 11.7 18 -7.8 25 25 E 7 11 30.14 1021 10 16 0.00 0.00
9:53 am 09:53 Sunny 56 13.3 19 -7.2 24 24 E 9 15 30.15 1021 10 16 0.00 0.00
10:53 am 10:53 Sunny 61 16.1 19 -7.2 20 20 ESE 7 11 30.13 1020 10 16 0.00 0.00
11:53 am 11:53 Sunny 66 18.9 20 -6.7 17 17 ESE 7 11 30.12 1020 10 16 0.00 0.00
12:53 pm 12:53 Sunny 69 20.6 20 -6.7 15 15 SE 9 15 30.10 1019 10 16 0.00 0.00
1:53 pm 13:53 Sunny 70 21.1 18 -7.8 14 14 Calm 30.07 1018 10 16 0.00 0.00
2:53 pm 14:53 Sunny 73 22.8 16 -8.9 11 11 SSE 12 19 30.04 1017 10 16 0.00 0.00
3:53 pm 15:53 Sunny 73 22.8 17 -8.3 12 12 undefined N/A 30.03 1017 10 16 0.00 0.00
4:53 pm 16:53 Sunny 74 23.3 16 -8.9 11 11 SE 13 20 30.01 1016 10 16 0.00 0.00
5:53 pm 17:53 Sunny 72 22.2 18 -7.8 13 13 SE 8 13 30.02 1017 10 16 0.00 0.00
6:53 pm 18:53 Clear 66 18.9 19 -7.2 16 16 SSE 8 13 30.04 1017 10 16 0.00 0.00
7:53 pm 19:53 Clear 60 15.6 20 -6.7 21 21 SE 8 13 30.06 1018 10 16 0.00 0.00
8:53 pm 20:53 Clear 59 15 22 -5.6 24 24 SE 9 15 30.06 1018 10 16 0.00 0.00
9:53 pm 21:53 Clear 54 12.2 21 -6.1 28 28 SE 5 7 30.08 1019 10 16 0.00 0.00
10:53 pm 22:53 Clear 53 11.7 23 -5 31 31 SE 7 11 30.08 1019 10 16 0.00 0.00
11:53 pm 23:53 Clear 49 9.4 22 -5.6 35 35 ESE 5 7 30.07 1018 10 16 0.00 0.00

Powered by AerisWeather